Regional Weather Roundup
Issued by NWS Charleston, SC

Current Version | Previous Version | Graphics & Text | Print | Product List | Glossary On
Versions: 1 2 3 4 5 6 7 8 9 10 11 12 13 14 15 16 17 18 19 20 21 22 23 24 25 26 27 28 29 30 31 32 33 34 35 36 37 38 39 40 41 42 43 44 45 46 47 48 49 50
000 ASUS42 KCHS 211512 RWRCHS REGIONAL WEATHER ROUNDUP NATIONAL WEATHER SERVICE CHARLESTON SC 1100 AM EDT FRI JUL 21 2017 NOTE: "FAIR" INDICATES FEW OR NO CLOUDS BELOW 12,000 FEET WITH NO SIGNIFICANT WEATHER AND/OR OBSTRUCTIONS TO VISIBILITY. NOT ALL STATIONS ARE QUALITY CONTROLLED. USE DATA WITH CAUTION... ESPECIALLY DEWPOINT OBSERVATIONS. SCZ027-030-031-034>040-042>050-211600- ...SOUTHEAST SOUTH CAROLINA... CITY SKY/WX TMP DP RH WIND PRES REMARKS N CHARLESTON MOSUNNY 86 72 62 SW6 30.06S HX 92 WATERFRONT PRK N/A 84 75 74 VRB3 30.05S HX 92 JOHNS ISLAND N/A 88 75 66 S5 30.06S HX 97 PINOPOLIS N/A 82 73 74 SW5 30.00S MONCKS CORNER FAIR 84 72 65 SW3 30.06S SUMMERVILLE FAIR 84 72 65 CALM 30.07S BEAUFORT MCAS MOSUNNY 87 74 64 CALM 30.07R HX 95 BEAUFORT ARPT FAIR 86 73 66 S6 30.06S HX 93 HILTON HEAD IS SUNNY 84 75 74 S9 30.08R HX 92 WALTERBORO SUNNY 84 72 65 CALM 30.07S ALLENDALE NOT AVBL ...SOUTHERN MIDLANDS AND PEE DEE... CITY SKY/WX TMP DP RH WIND PRES REMARKS GEORGETOWN FAIR 84 72 65 W6 30.07S KINGSTREE FAIR 84 72 65 S3 30.06S ORANGEBURG SUNNY 84 73 69 CALM 30.06S HX 90 BARNWELL FAIR 86 77 74 CALM 30.06S HX 97 AIKEN FAIR 86 73 66 CALM 30.09F HX 93 MANNING FAIR 86 73 66 W25 30.05F HX 93 COLUMBIA SUNNY 86 74 67 S3 30.04S HX 94 SUMTER SUNNY 85 73 68 SW3 30.03S HX 92 FLORENCE SUNNY 85 74 69 SW3 30.05S HX 92 MYRTLE BEACH SUNNY 88 72 58 W6 30.06 HX 94 N MYRTLE BEACH SUNNY 87 72 60 SW5 30.05S HX 93 $$ GAZ063-065-086>088-099>101-113>116-118-119-134>141-150-211600- ...SOUTHEAST GEORGIA... CITY SKY/WX TMP DP RH WIND PRES REMARKS SAVANNAH ARPT MOSUNNY 88 73 61 CALM 30.07S HX 95 HUNTER AAF SUNNY 86 73 65 SE8 30.05S HX 93 FORT STEWART SUNNY 85 74 71 S3 30.05S HX 92 STATESBORO SUNNY 86 76 71 CALM 30.07R HX 96 SYLVANIA SUNNY 86 78 76 CALM 30.07S HX 97 CLAXTON FAIR 86 76 73 CALM 30.07R HX 96 ...CSRA...CENTRAL AND FAR SOUTHEAST GEORGIA... CITY SKY/WX TMP DP RH WIND PRES REMARKS THOMSON SUNNY 88 74 62 NE5 30.10S HX 96 AUGUSTA-BUSH SUNNY 87 77 72 CALM 30.04S HX 99 AUGUSTA-DANIEL SUNNY 87 73 62 SE3 30.06S HX 94 SWAINSBORO FAIR 84 77 79 CALM 30.07S HX 94 VIDALIA SUNNY 88 77 70 CALM 30.07S HX 100 EASTMAN FAIR 88 67 48 CALM 30.08S HX 91 HAZLEHURST FAIR 87 75 66 CALM 30.06S HX 96 ALMA SUNNY 86 75 69 VRB3 30.07R HX 95 WAYCROSS SUNNY 85 82 89 SW3 30.08R HX 102 JESUP NOT AVBL BAXLEY FAIR 86 82 89 S5 30.07S HX 105 BRUNSWICK SUNNY 88 75 66 S5 30.08S HX 97 SAINT SIMONS SUNNY 86 74 67 SE6 30.08R HX 94 $$ SCZ027-028-034-036>038-045-046-048>050-GAZ119-141-211600- ...LAKE AND SUPPLEMENTAL COASTAL OBSERVATIONS... STATION/POSITION TIME TEMP WIND PRES WAVE SWELL AIR SEA DIR/SP/G HT/PER HT/PER/DIR (UTC) (F) (DEG/KT/KT) (MB) (FT/S) (FT/S/D) WINYAH BAY 1345 82 260/ 7 1018.0 LAKE MURRAY 1420 84 180/ 3/ 5 1016.6S ACE BASIN NERRS NOT AVBL FORT PULASKI 1436 84 85 190/ 3/ 6 1018.8R SAPELO ISLAND 1400 85 CALM 1018.0 $$ ANZ835-935-AMZ111-154-330-350-352-354-370-450-454-472-211600- ...C-MAN AND BUOY OBSERVATIONS... STATION/POSITION TIME TEMP WIND PRES WAVE SWELL AIR SEA DIR/SP/G HT/PER HT/PER/DIR (UTC) (F) (DEG/KT/KT) (MB) (FT/S) (FT/S/D) BUOY 41004 1450 82 83 250/ 8/ 10 1018.5R 3/ 8 2/150/ 8 BUOY 41008 1350 82 82 CALM / 2 1018.1 2/ 8 2/110/ 8 FOLLY BEACH CMAN 1400 83 200/ 7/ 9 1018.8R CAPERS NEARSHORE 1408 81 83 240/ 8/ 10 1018.0R FRIPP NEARSHORE 1408 82 84 220/ 4/ 6 1018.0R STATION/POSITION TIME TEMP WIND PRES WAVE SWELL AIR SEA DIR/SP/G HT/PER HT/PER/DIR (UTC) (F) (DEG/KT/KT) (MB) (FT/S) (FT/S/D) 5E ST. MARYS GA 1430 82 N/A 2/ 8 FRYING PAN BUOY 1450 83 83 250/ 10/ 12 1017.9R 3/ 7 2/120/ 7 BUOY 41025 1450 82 84 240/ 12/ 14 1016.9R 3/ 4 2/150/ 8 CAPE LOOKOUT NC 1400 83 250/ 8/ 10 1016.7S BUOY 41002 1350 82 83 240/ 8/ 10 1019.1 3/ 9 3/120/ 9 BUOY 41010 1450 81 85 250/ 10/ 12 1019.6R 3/ 8 2/ 80/ 8 ST AUGUSTINE FL 1500 81 81 140/ 5/ 5 1019.5R $$

USA.gov is the U.S. government's official web portal to all federal, state and local government web resources and services.